User: anonymous
Location: Brno
(49.2000°N, 16.6330°E)
Time: 10:39:14
(UTC+02:00)
Language:

Iridium 2 - Orbit

View from above orbital plane
View from above orbital plane
View from above satellite
View from above satellite

Ground track
Ground track

The orbit data is extracted from the following two-line orbital elements,

1 25527U 98066A   14209.34867968  .00002482  00000-0  15933-3 0  3036
2 25527 085.5369 291.8251 0009341 002.8356 040.1982 15.07955568858330
Epoch (UTC): 28 July 2014 08:22:05
Eccentricity: 0.0009341
inclination: 85.5369°
perigee height: 536 km
apogee height: 549 km
right ascension of ascending node: 291.8251°
argument of perigee: 2.8356°
revolutions per day: 15.07955568
mean anomaly at epoch: 40.1982°
orbit number at epoch: 85833

The dashed part of the orbit path shows where the satellite is in the earth's shadow,  

DLR